Torna al catalogo

QIANFAN-95

AttivoComunicazioniPO
NORAD 66037·PAYLOAD·🇨🇳 China

Lanciato Oct 17, 2025 da Taiyuan Satellite Launch Center

Loading…

Prossimi Passaggi (prossime 24 ore)

TLE

AggiornatoSource: Space-Track

Epoca: Sep 14, 2026, 20:02 UTC

1 66037U 25233E   26257.83505768  .00000068  00000-0  87382-4 0  9997
2 66037  89.0052  33.5988 0001704  92.8127 267.3219 13.51021747 45588

Traccia QIANFAN-95 in tempo reale con AllMySat

Download on the App Store